Regional Weather Roundup
Issued by NWS

Home | Current Version | Previous Version | Graphics & Text | Print | Product List | Glossary On
Versions: 1 2 3 4 5 6 7 8 9 10 11 12 13 14 15 16 17 18 19 20 21 22 23 24 25 26 27
000
ASUS45 KCYS 302310
RWRWY

WYOMING REGIONAL WEATHER ROUNDUP
NATIONAL WEATHER SERVICE CHEYENNE WY
500 PM MDT TUE AUG 30 2016

NOTE:  "FAIR" INDICATES FEW OR NO CLOUDS BELOW 12,000 FEET
WITH NO SIGNIFICANT WEATHER AND/OR OBSTRUCTIONS TO VISIBILITY.

WYZ001-310000-
YELLOWSTONE NATIONAL PARK

CITY           SKY/WX    TMP DP  RH WIND       PRES   REMARKS
LK YELLOWSTONE   N/A     74  27  17 CALM      30.37F
W YELLOWSTONE  NOT AVBL

$$
WYZ002>013-054>058-071-098>099-310000-
NORTHERN WYOMING

CITY           SKY/WX    TMP DP  RH WIND       PRES   REMARKS
JACKSON        SUNNY     88  25  10 W8        30.23F
CODY           FAIR      90  32  12 E13G21    30.14S
GREYBULL       FAIR      95  22   7 VRB5      30.05F
WORLAND        FAIR      93  25   8 S8        30.08F
SHERIDAN       FAIR      93  32  11 SE17G23   30.08S
BUFFALO        FAIR      89  29  11 SE18      30.18S
GILLETTE       FAIR      87  41  19 SE13      30.18S
HULETT         FAIR      86  41  20 SW12      30.21S
NEWCASTLE      FAIR      84  37  18 SE10      30.22F

$$
WYZ014>020-022>026-101>103-310000-
CENTRAL WYOMING

CITY           SKY/WX    TMP DP  RH WIND       PRES   REMARKS
BIG PINEY      FAIR      81  27  14 SW7       30.31F
PINEDALE       FAIR      81  25  12 S6        30.32S
DUBOIS         FAIR      79  25  13 SE13G20   30.31S
LANDER         FAIR      88  31  13 NE12G18   30.20F
RIVERTON       FAIR      86  31  13 E7        30.20F
CASPER         FAIR      86  32  14 E10       30.21F
DOUGLAS        FAIR      84  31  14 SE15G25   30.24S

$$
WYZ021-027>030-104>119-310000-
SOUTHERN WYOMING

CITY           SKY/WX    TMP DP  RH WIND       PRES   REMARKS
EVANSTON       FAIR      84  20   9 NE9       30.29F
FORT BRIDGER   FAIR      84  20   9 SE12      30.32F
ROCK SPRINGS   FAIR      82  15   8 E10G18    30.28F
DIXON          FAIR      86  31  14 N17G26    30.26F
RAWLINS        FAIR      82  24  12 E9G20     30.30F
SARATOGA       FAIR      81  30  16 N8G23     30.30F
LARAMIE        FAIR      73  42  32 SE15      30.36F
CHEYENNE       PTSUNNY   70  49  47 E9        30.33F
TORRINGTON     FAIR      84  44  24 SE13      30.20F
PINE BLUFFS    FAIR      77  50  38 SE13G23   30.28S

$$




USA.gov is the U.S. government's official web portal to all federal, state and local government web resources and services.